Regional Weather Roundup
Issued by NWS Jackson, KY

Home | Current Version | Previous Version | Text Only | Print | Product List | Glossary Off
Versions: 1 2 3 4 5 6 7 8 9 10 11 12 13 14 15 16 17 18 19 20 21 22 23 24 25 26 27 28 29 30 31 32 33 34 35 36 37 38 39 40 41 42 43 44 45 46 47 48 49 50

000
ASUS43 KJKL 020310
RWRJKL

EAST KENTUCKY HOURLY WEATHER ROUNDUP
NATIONAL WEATHER SERVICE JACKSON KY
1100 PM EDT SAT AUG 01 2015

NOTE: "FAIR" INDICATES FEW OR NO CLOUDS BELOW 12,000 FEET WITH
NO SIGNIFICANT WEATHER AND/OR OBSTRUCTIONS TO VISIBILITY.

* THESE REPORTS ARE NOT UNDER NWS QUALITY CONTROL AND MAY NOT
  REPORT WEATHER SUCH AS PRECIPITATION AND FOG.

KYZ079-080-083-085-087-088-110-112-115-119-120-020400
...EASTERN KENTUCKY...

CITY           SKY/WX    TMP DP  RH WIND       PRES   REMARKS
JACKSON        CLEAR     73  56  54 CALM      30.02R
LONDON         PTCLDY    71  60  68 CALM      30.02R
SOMERSET*      CLEAR     70  59  68 NW3       30.02S
MONTICELLO*    PTCLDY    64  63  97 CALM      30.04R
MIDDLESBORO*   PTCLDY    68  64  87 CALM      30.02S
HAZARD APT*    CLEAR     66  64  94 CALM      30.02R
BLACK MTN*       N/A     61  57  88 N2          N/A
PIKEVILLE APT* CLEAR     73  59  60 CALM      30.02S
BIG SANDY*     CLEAR     69  62  77 CALM      30.01S
MOREHEAD APT*  CLEAR     72  61  68 NW3       30.03R
$$

KYZ035-036-041-042-044-050-067-078-099-020400
...CENTRAL KENTUCKY...

CITY           SKY/WX    TMP DP  RH WIND       PRES   REMARKS
MT STERLING*   CLEAR     66  64  94 CALM      30.02S
FLEMING/MASON* CLEAR     68  61  77 W5        30.02R
DANVILLE*      CLEAR     68  61  77 CALM      30.03R
RICHMOND*      CLEAR     70  59  68 CALM      30.01S
LEXINGTON      CLEAR     68  60  75 CALM      30.01S
FRANKFORT      CLEAR     67  60  78 CALM      30.00R
$$

KYZ091>093-OHZ055-061-077-WVZ005-015-034-035-042-020400
...SOUTHERN OHIO/WEST VIRGINIA...

CITY           SKY/WX    TMP DP  RH WIND       PRES   REMARKS
COVINGTON      CLEAR     69  58  67 W5        30.00S
COLUMBUS       PTCLDY    73  55  53 W6        29.96S
DAYTON         PTCLDY    69  59  70 SW8       30.00R
WILMINGTON     PTCLDY    64  61  90 SW3       30.00R
HUNTINGTON     CLEAR     68  61  78 CALM      29.99R
CHARLESTON     PTCLDY    67  62  84 CALM      29.99R
PINEVILLE*     CLEAR     62  62  99 MISG      30.08S
BECKLEY        CLEAR     61  56  83 CALM      30.07R
BLUEFIELD      CLEAR     69  55  60 CALM      30.09R
$$

VAZ002-007-008-TNZ017-027-036-066-071-020400
...SOUTHWEST VIRGINIA/EAST TENNESSEE...

CITY           SKY/WX    TMP DP  RH WIND       PRES   REMARKS
WISE*          CLEAR     72  55  56 CALM      30.09S
ABINGDON*      CLEAR     68  61  78 CALM      30.05R
BRISTOL        PTCLDY    69  61  75 CALM      30.01S
KNOXVILLE      PTCLDY    76  66  71 CALM      29.98R
OAK RIDGE        N/A     73  64  73 CALM      30.01R
CROSSVILLE     CLEAR     72  62  71 N6        30.06R
NASHVILLE      PTCLDY    78  65  63 N9        30.00R
$$

...KEY TO REMARKS...
VSB - VISIBILITY IN MILES
WCI - WIND CHILL INDEX
HX  - HEAT INDEX

$$


USA.gov is the U.S. government's official web portal to all federal, state and local government web resources and services.